Location: San Antonio
(29.4240°N, 98.4930°W)
Time: 07:41:06
(UTC-05:00)

Vanguard 2 Rocket - Visible Passes

Search period start: 19 July 2024 00:00
Search period end: 29 July 2024 00:00
Orbit: 555 x 3302 km, 32.9° (Epoch: 19 July)

Date Brightness Start Highest point End Pass type
(mag) Time Alt. Az. Time Alt. Az. Time Alt. Az.
19 Jul 8.3 00:03:06 10° WNW 00:11:51 85° NNE 00:16:34 49° E visible
19 Jul 9.3 02:16:11 10° WNW 02:40:39 23° SE 02:46:23 10° SE visible
19 Jul 9.9 04:46:27 26° SSW 04:46:27 26° SSW 04:59:50 10° SSE visible
19 Jul 7.3 20:48:49 10° W 20:53:57 77° N 21:02:45 10° ENE visible
19 Jul 8.0 23:00:58 10° WNW 23:08:14 76° N 23:15:47 27° E visible
20 Jul 8.6 01:13:27 10° WNW 01:44:01 - ESE 01:21:11 60° WSW visible
20 Jul 10.2 03:49:44 23° S 03:49:44 23° S 03:56:47 10° SSE visible
20 Jul 10.4 05:55:28 10° SW 05:57:27 11° SW 06:00:52 10° SSW visible
20 Jul 7.7 21:58:56 10° W 22:04:57 69° N 22:15:23 11° E visible
21 Jul 8.2 00:11:06 10° WNW 00:19:41 83° SSW 00:20:48 76° SE visible
21 Jul 9.9 02:24:26 10° W 02:52:28 10° SE 02:52:41 10° SE visible
21 Jul 10.4 04:58:09 15° SSW 04:58:09 15° SSW 05:03:38 10° S visible
21 Jul 7.4 20:56:57 10° W 21:02:00 67° N 21:10:35 10° E visible
21 Jul 7.9 23:08:59 10° WNW 23:16:09 84° NNE 23:20:38 42° E visible
22 Jul 9.1 01:21:33 10° W 01:26:06 34° W 01:26:06 34° W visible
22 Jul 10.7 04:00:26 12° S 04:00:26 12° S 04:01:43 10° SSE visible
22 Jul 7.6 22:06:59 10° WNW 22:12:56 72° N 22:20:37 19° E visible
23 Jul 8.2 00:19:05 10° WNW 00:26:05 63° WSW 00:26:05 63° WSW visible
23 Jul10.303:02:25SSE03:02:25SSE02:31:32Wvisible
23 Jul 7.3 21:05:02 10° WNW 21:10:01 64° N 21:18:27 10° E visible
23 Jul 7.7 23:16:56 10° WNW 23:23:58 83° SSW 23:26:10 60° ESE visible
24 Jul 9.6 01:29:48 10° W 01:31:39 18° W 01:31:39 18° W visible
24 Jul 7.4 22:14:57 10° WNW 22:20:50 82° NNE 22:26:21 28° E visible
25 Jul 8.7 00:27:09 10° W 00:31:50 39° WSW 00:31:50 39° WSW visible
25 Jul 7.2 21:13:01 10° WNW 21:17:59 68° N 21:26:18 10° E visible
25 Jul 7.8 23:24:54 10° WNW 23:31:44 66° SSW 23:32:05 65° S visible
26 Jul 7.3 22:22:52 10° WNW 22:28:38 82° SSW 22:32:24 38° ESE visible
27 Jul 9.2 00:35:25 10° W 00:37:54 22° WSW 00:37:54 22° WSW visible
27 Jul 7.0 21:20:56 10° WNW 21:25:50 79° NNE 21:32:46 14° E visible
27 Jul 8.1 23:32:57 10° W 23:38:16 45° SW 23:38:16 45° SW visible
28 Jul 7.4 22:30:47 10° W 22:36:23 62° SSW 22:38:41 45° SE visible
